This is the latest recevied weather packets stored in our database for station/object SV9TNF-51. If no packets are shown the sender has not sent any weather packets the latest 10 day(s).
| Time | Temp. | Humidity | Pressure | Rain* | Wind** | Luminosity | Snow |
|---|---|---|---|---|---|---|---|
| 1788346723 | 36.67° C | 32% | 1011.9 hPa | 0 mm | 1.79 m/s, 130° | - | - |
| 1788346423 | 37.22° C | 32% | 1011.9 hPa | 0 mm | 0.45 m/s, 128° | - | - |
| 1788346123 | 35.56° C | 34% | 1011.9 hPa | 0 mm | 1.79 m/s, 125° | - | - |
| 1788345823 | 34.44° C | 35% | 1011.9 hPa | 0 mm | 2.68 m/s, 94° | - | - |
| 1788345523 | 34.44° C | 37% | 1011.9 hPa | 0 mm | 3.58 m/s, 141° | - | - |
| 1788345223 | 34.44° C | 37% | 1011.9 hPa | 0 mm | 4.92 m/s, 113° | - | - |
| 1788344922 | 33.89° C | 38% | 1011.9 hPa | 0 mm | 4.92 m/s, 119° | - | - |
| 1788344623 | 33.89° C | 39% | 1011.9 hPa | 0 mm | 4.02 m/s, 113° | - | - |
| 1788344322 | 33.89° C | 37% | 1011.9 hPa | 0 mm | 4.92 m/s, 123° | - | - |
| 1788344022 | 33.89° C | 38% | 1011.9 hPa | 0 mm | 5.81 m/s, 143° | - | - |
| 1788343722 | 34.44° C | 37% | 1012.2 hPa | 0 mm | 5.81 m/s, 106° | - | - |
| 1788343422 | 36.11° C | 34% | 1012.2 hPa | 0 mm | 4.02 m/s, 140° | - | - |
| 1788343122 | 35.56° C | 34% | 1012.2 hPa | 0 mm | 3.58 m/s, 137° | - | - |
| 1788342822 | 35.56° C | 36% | 1012.2 hPa | 0 mm | 1.79 m/s, 129° | - | - |
| 1788342522 | 35.56° C | 36% | 1012.2 hPa | 0 mm | 4.92 m/s, 97° | - | - |
| 1788342222 | 35.56° C | 40% | 1012.2 hPa | 0 mm | 3.58 m/s, 124° | - | - |
| 1788341921 | 35.56° C | 40% | 1012.2 hPa | 0 mm | 2.24 m/s, 156° | - | - |
| 1788341621 | 35.56° C | 38% | 1012.2 hPa | 0 mm | 2.68 m/s, 116° | - | - |
| 1788341321 | 35.56° C | 34% | 1012.2 hPa | 0 mm | 2.68 m/s, 120° | - | - |
| 1788341021 | 36.11° C | 36% | 1011.9 hPa | 0 mm | 3.13 m/s, 62° | - | - |
| 1788340721 | 35.56° C | 39% | 1011.9 hPa | 0 mm | 1.79 m/s, 125° | - | - |
| 1788340421 | 35.56° C | 37% | 1011.9 hPa | 0 mm | 1.34 m/s, 138° | - | - |
| 1788339821 | 35.56° C | 37% | 1011.9 hPa | 0 mm | 1.34 m/s, 125° | - | - |
| 1788339521 | 34.44° C | 38% | 1011.9 hPa | 0 mm | 3.58 m/s, 115° | - | - |
| 1788339221 | 33.33° C | 40% | 1011.9 hPa | 0 mm | 6.26 m/s, 312° | - | - |
* Rain latest hour (hover to see other rain measurements)
** Current wind speed in m/s (hover to see current wind gust speed)